Location: Camp at the Woods
(43.2055°N, 93.0905°W)
Time: 09:10:57
(UTC+00:00)

BlueWalker 3 - Pass Details

Date: 22 April 2024
Orbit: 482 x 494 km, 53.2° (Epoch: 22 May)

Event Time Altitude Azimuth Distance (km) Brightness Sun altitude
Rises 01:36:12 0° 244° (WSW) 2,559 6.2 -6.5°
Reaches altitude 10° 01:38:24 10° 248° (WSW) 1,683 5.3 -6.9°
Maximum altitude 01:42:09 57° 328° (NNW) 586 2.6 -7.5°
Drops below altitude 10° 01:45:56 10° 48° (NE) 1,698 4.4 -8.1°
Sets 01:48:09 0° 53° (NE) 2,585 5.3 -8.5°
